STARLINK-5766 (56025 NORAD) Tracking and Keplerian Element Data

This shows tracking and keplerian element data for the satellite.

Feedback or suggestion? Click here.




ElementValue
Catalog56025
NameSTARLINK-5766
Epoch Orbit721
Epoch Day127.25001157
Epoch Year2023
RAAN291.7145
Inclination42.9995
Eccentricity0.0001462
Argument of Perigee273.6944
Mean Anonmoly272.5959
Mean Motion15.54446998
Decay Rate-0.00886419
L11 56025U 23042AR 23127.25001157 -.00886419 00000+0 -14435-1 0 9990
L22 56025 42.9995 291.7145 0001462 273.6944 272.5959 15.54446998 7219



Live tracking and technical data element details for STARLINK-5766 (NORAD 56025). STARLINK-5766 can be tracked NOW for your location showing map with azimuth and elevation plus other details from your city location.







IsCatalogInMostPopularTable: catalog: 56025, numindb: -1

Insert: records affected: 1


GetName: 56025 STARLINK-5766

Hit Count: inserted at: Sat, 03 Jun 2023 17:17:10 GMT